| time (UTC) | temp C | wind direction | speed KPH | gust KPH | rain 1hr cm | rain 24hr cm | rain mn cm | humidity % | barometer mb |
| 20260505101229 | 13 | 118 | 1.6 | 3.2 | 0.00 | 0.00 | 0.00 | 62 | 1008.8 |
| 20260505100726 | 13 | 131 | 1.6 | 1.6 | 0.00 | 0.00 | 0.00 | 61 | 1008.8 |
| 20260505100223 | 13 | 154 | 0.0 | 0.0 | 0.00 | 0.00 | 0.00 | 59 | 1008.8 |
| 20260505095718 | 13 | 150 | 0.0 | 0.0 | 0.00 | 0.00 | 0.00 | 60 | 1008.8 |
| 20260505095217 | 13 | 163 | 0.0 | 0.0 | 0.00 | 0.00 | 0.00 | 61 | 1008.8 |
| 20260505094712 | 12 | 198 | 1.6 | 3.2 | 0.00 | 0.00 | 0.00 | 64 | 1008.8 |
| 20260505094208 | 12 | 123 | 4.8 | 4.8 | 0.00 | 0.00 | 0.00 | 65 | 1009.1 |
| 20260505093704 | 12 | 116 | 1.6 | 1.6 | 0.00 | 0.00 | 0.00 | 65 | 1008.8 |
| 20260505093202 | 12 | 150 | 1.6 | 1.6 | 0.00 | 0.00 | 0.00 | 65 | 1009.1 |
| 20260505092659 | 12 | 150 | 1.6 | 1.6 | 0.00 | 0.00 | 0.00 | 65 | 1009.1 |
| 20260505092158 | 12 | 152 | 1.6 | 1.6 | 0.00 | 0.00 | 0.00 | 65 | 1009.1 |
| 20260505091654 | 12 | 113 | 3.2 | 3.2 | 0.00 | 0.00 | 0.00 | 65 | 1008.8 |
| 20260505091152 | 12 | 120 | 1.6 | 1.6 | 0.00 | 0.00 | 0.00 | 65 | 1008.8 |
| 20260505090649 | 12 | 156 | 0.0 | 0.0 | 0.00 | 0.00 | 0.00 | 65 | 1008.8 |
| 20260505090148 | 13 | 155 | 0.0 | 0.0 | 0.00 | 0.00 | 0.00 | 64 | 1008.8 |
| 20260505085645 | 13 | 161 | 0.0 | 0.0 | 0.00 | 0.00 | 0.00 | 64 | 1008.8 |
| 20260505085143 | 13 | 160 | 0.0 | 0.0 | 0.00 | 0.00 | 0.00 | 64 | 1008.8 |
| 20260505084640 | 13 | 163 | 0.0 | 0.0 | 0.00 | 0.00 | 0.00 | 64 | 1008.8 |
| 20260505084139 | 13 | 136 | 0.0 | 1.6 | 0.00 | 0.00 | 0.00 | 64 | 1009.1 |
| 20260505083636 | 13 | 127 | 1.6 | 1.6 | 0.00 | 0.00 | 0.00 | 64 | 1009.1 |
| 20260505083132 | 13 | 149 | 0.0 | 0.0 | 0.00 | 0.00 | 0.00 | 64 | 1008.8 |
| 20260505082628 | 13 | 132 | 0.0 | 0.0 | 0.00 | 0.00 | 0.00 | 64 | 1009.1 |
| 20260505082126 | 13 | 174 | 0.0 | 0.0 | 0.00 | 0.00 | 0.00 | 64 | 1009.1 |
| 20260505081621 | 13 | 210 | 3.2 | 3.2 | 0.00 | 0.00 | 0.00 | 63 | 1008.8 |
| 20260505081119 | 13 | 148 | 0.0 | 0.0 | 0.00 | 0.00 | 0.00 | 64 | 1008.8 |
| 20260505080615 | 13 | 149 | 0.0 | 0.0 | 0.00 | 0.00 | 0.00 | 63 | 1008.8 |
| 20260505080112 | 13 | 96 | 1.6 | 3.2 | 0.00 | 0.00 | 0.00 | 63 | 1008.8 |
| 20260505075608 | 13 | 89 | 3.2 | 3.2 | 0.00 | 0.00 | 0.00 | 63 | 1009.1 |
| 20260505075104 | 13 | 134 | 1.6 | 1.6 | 0.00 | 0.00 | 0.00 | 63 | 1009.1 |
| 20260505074602 | 13 | 122 | 4.8 | 4.8 | 0.00 | 0.00 | 0.00 | 62 | 1009.1 |
| 20260505074059 | 13 | 153 | 0.0 | 0.0 | 0.00 | 0.00 | 0.00 | 62 | 1009.1 |
| 20260505073556 | 13 | 145 | 0.0 | 1.6 | 0.00 | 0.00 | 0.00 | 62 | 1008.8 |
| 20260505073055 | 13 | 114 | 1.6 | 1.6 | 0.00 | 0.00 | 0.00 | 62 | 1009.1 |
| 20260505072549 | 13 | 150 | 0.0 | 0.0 | 0.00 | 0.00 | 0.00 | 62 | 1008.8 |
| 20260505072046 | 13 | 221 | 1.6 | 1.6 | 0.00 | 0.00 | 0.00 | 62 | 1008.8 |
| 20260505071541 | 13 | 83 | 1.6 | 3.2 | 0.00 | 0.00 | 0.00 | 62 | 1008.8 |
| 20260505071040 | 13 | 179 | 0.0 | 0.0 | 0.00 | 0.00 | 0.00 | 61 | 1008.8 |
| 20260505070537 | 13 | 186 | 0.0 | 0.0 | 0.00 | 0.00 | 0.00 | 61 | 1008.8 |
| 20260505070033 | 13 | 187 | 4.8 | 9.7 | 0.00 | 0.00 | 0.00 | 61 | 1009.1 |
| 20260505065529 | 13 | 213 | 8.0 | 11.3 | 0.00 | 0.00 | 0.00 | 61 | 1008.8 |
| 20260505065025 | 13 | 218 | 8.0 | 9.7 | 0.00 | 0.00 | 0.00 | 61 | 1008.8 |
| 20260505064522 | 13 | 187 | 3.2 | 8.0 | 0.00 | 0.00 | 0.00 | 63 | 1008.8 |
| 20260505064021 | 13 | 183 | 8.0 | 12.9 | 0.00 | 0.00 | 0.00 | 63 | 1008.8 |
| 20260505063518 | 13 | 214 | 4.8 | 4.8 | 0.00 | 0.00 | 0.00 | 65 | 1008.8 |
| 20260505063013 | 13 | 180 | 1.6 | 4.8 | 0.00 | 0.00 | 0.00 | 65 | 1008.8 |
| 20260505062511 | 13 | 181 | 3.2 | 4.8 | 0.00 | 0.00 | 0.00 | 65 | 1008.8 |
| 20260505062008 | 13 | 212 | 4.8 | 9.7 | 0.00 | 0.00 | 0.00 | 64 | 1008.8 |
| 20260505061505 | 13 | 188 | 4.8 | 8.0 | 0.00 | 0.00 | 0.00 | 64 | 1008.4 |
| 20260505061003 | 13 | 205 | 4.8 | 8.0 | 0.00 | 0.00 | 0.00 | 64 | 1008.8 |
| 20260505060500 | 13 | 236 | 4.8 | 4.8 | 0.00 | 0.00 | 0.00 | 63 | 1008.8 |
| 20260505055956 | 14 | 225 | 14.5 | 17.7 | 0.00 | 0.03 | 0.03 | 62 | 1008.4 |
| 20260505055452 | 14 | 229 | 9.7 | 16.1 | 0.00 | 0.03 | 0.03 | 60 | 1008.4 |
| 20260505054949 | 14 | 249 | 9.7 | 17.7 | 0.00 | 0.03 | 0.03 | 59 | 1008.8 |
| 20260505054446 | 14 | 211 | 8.0 | 11.3 | 0.00 | 0.03 | 0.03 | 59 | 1008.8 |
| 20260505053944 | 15 | 199 | 4.8 | 4.8 | 0.00 | 0.03 | 0.03 | 57 | 1008.8 |
| 20260505053441 | 15 | 206 | 8.0 | 12.9 | 0.00 | 0.03 | 0.03 | 56 | 1008.8 |
| 20260505052938 | 15 | 206 | 4.8 | 4.8 | 0.00 | 0.03 | 0.03 | 56 | 1008.8 |
| 20260505052435 | 15 | 202 | 3.2 | 3.2 | 0.00 | 0.03 | 0.03 | 56 | 1008.8 |
| 20260505051932 | 15 | 185 | 1.6 | 1.6 | 0.00 | 0.03 | 0.03 | 55 | 1008.4 |
| 20260505051429 | 15 | 177 | 1.6 | 1.6 | 0.00 | 0.03 | 0.03 | 55 | 1008.4 |
| 20260505050927 | 15 | 192 | 3.2 | 8.0 | 0.00 | 0.03 | 0.03 | 54 | 1008.4 |
| 20260505050425 | 15 | 190 | 1.6 | 3.2 | 0.00 | 0.03 | 0.03 | 54 | 1008.4 |
| 20260505041352 | 15 | 152 | 1.6 | 1.6 | 0.00 | 0.03 | 0.03 | 52 | 1007.6 |
| 20260505040849 | 15 | 144 | 0.0 | 0.0 | 0.00 | 0.03 | 0.03 | 52 | 1007.6 |
| 20260505040347 | 15 | 165 | 0.0 | 0.0 | 0.00 | 0.03 | 0.03 | 50 | 1007.6 |
| 20260505035844 | 15 | 160 | 0.0 | 0.0 | 0.00 | 0.03 | 0.03 | 49 | 1007.6 |
| 20260505035339 | 15 | 202 | 1.6 | 1.6 | 0.00 | 0.03 | 0.03 | 52 | 1007.6 |
| 20260505034837 | 15 | 151 | 0.0 | 0.0 | 0.00 | 0.03 | 0.03 | 51 | 1007.6 |
| 20260505034333 | 15 | 154 | 0.0 | 0.0 | 0.00 | 0.03 | 0.03 | 50 | 1007.2 |
| 20260505033831 | 15 | 159 | 0.0 | 0.0 | 0.00 | 0.03 | 0.03 | 50 | 1006.8 |
| 20260505033327 | 15 | 165 | 0.0 | 0.0 | 0.00 | 0.03 | 0.03 | 50 | 1007.2 |
| 20260505032826 | 15 | 167 | 0.0 | 0.0 | 0.00 | 0.03 | 0.03 | 51 | 1007.2 |
| 20260505032322 | 15 | 154 | 0.0 | 0.0 | 0.00 | 0.03 | 0.03 | 51 | 1006.8 |
| 20260505031819 | 15 | 160 | 0.0 | 0.0 | 0.00 | 0.03 | 0.03 | 49 | 1006.8 |
| 20260505031315 | 15 | 117 | 1.6 | 1.6 | 0.00 | 0.03 | 0.03 | 49 | 1006.8 |
| 20260505030813 | 16 | 162 | 0.0 | 0.0 | 0.00 | 0.03 | 0.03 | 48 | 1006.8 |
| 20260505030309 | 16 | 169 | 0.0 | 0.0 | 0.00 | 0.03 | 0.03 | 48 | 1006.8 |
| 20260505025804 | 16 | 140 | 0.0 | 0.0 | 0.00 | 0.03 | 0.03 | 46 | 1006.8 |
| 20260505025304 | 16 | 158 | 0.0 | 0.0 | 0.00 | 0.03 | 0.03 | 46 | 1006.8 |
| 20260505024800 | 16 | 158 | 0.0 | 0.0 | 0.00 | 0.03 | 0.03 | 45 | 1006.5 |
| 20260505024257 | 16 | 160 | 0.0 | 0.0 | 0.00 | 0.03 | 0.03 | 45 | 1006.5 |
| 20260505023755 | 17 | 165 | 0.0 | 0.0 | 0.00 | 0.03 | 0.03 | 44 | 1006.5 |
| 20260505023251 | 17 | 160 | 0.0 | 0.0 | 0.00 | 0.03 | 0.03 | 44 | 1006.5 |
| 20260505022749 | 17 | 161 | 0.0 | 0.0 | 0.00 | 0.03 | 0.03 | 43 | 1006.5 |
| 20260505022246 | 17 | 165 | 0.0 | 0.0 | 0.00 | 0.03 | 0.03 | 43 | 1006.5 |
| 20260505021742 | 17 | 165 | 0.0 | 0.0 | 0.00 | 0.03 | 0.03 | 41 | 1006.5 |
| 20260505021240 | 18 | 169 | 0.0 | 0.0 | 0.00 | 0.03 | 0.03 | 42 | 1006.5 |
| 20260505020735 | 18 | 162 | 0.0 | 0.0 | 0.00 | 0.03 | 0.03 | 40 | 1006.5 |
| 20260505020231 | 18 | 168 | 0.0 | 0.0 | 0.00 | 0.03 | 0.03 | 40 | 1006.5 |
| 20260505015728 | 18 | 167 | 0.0 | 0.0 | 0.00 | 0.03 | 0.03 | 39 | 1006.5 |
| 20260505015225 | 18 | 120 | 1.6 | 1.6 | 0.00 | 0.03 | 0.03 | 38 | 1006.5 |
| 20260505014722 | 18 | 138 | 3.2 | 3.2 | 0.00 | 0.03 | 0.03 | 38 | 1006.5 |
| 20260505014220 | 18 | 178 | 1.6 | 1.6 | 0.00 | 0.03 | 0.03 | 39 | 1006.5 |
| 20260505013716 | 18 | 149 | 0.0 | 0.0 | 0.00 | 0.03 | 0.03 | 39 | 1006.5 |
| 20260505013213 | 18 | 151 | 1.6 | 3.2 | 0.00 | 0.03 | 0.03 | 37 | 1006.5 |
| 20260505012711 | 18 | 145 | 0.0 | 0.0 | 0.00 | 0.03 | 0.03 | 37 | 1006.5 |
| 20260505012208 | 18 | 131 | 0.0 | 0.0 | 0.00 | 0.03 | 0.03 | 37 | 1006.8 |
| 20260505011704 | 18 | 130 | 0.0 | 0.0 | 0.00 | 0.03 | 0.03 | 37 | 1006.5 |
| 20260505011201 | 18 | 143 | 0.0 | 1.6 | 0.00 | 0.03 | 0.03 | 37 | 1006.5 |
| 20260505010656 | 18 | 96 | 0.0 | 0.0 | 0.00 | 0.03 | 0.03 | 37 | 1006.5 |
| 20260505010154 | 18 | 137 | 0.0 | 0.0 | 0.00 | 0.03 | 0.03 | 36 | 1006.5 |
| 20260505005650 | 18 | 134 | 1.6 | 1.6 | 0.00 | 0.03 | 0.03 | 36 | 1006.5 |
| 20260505005147 | 18 | 90 | 1.6 | 1.6 | 0.00 | 0.03 | 0.03 | 36 | 1006.5 |
| 20260505004644 | 18 | 108 | 8.0 | 11.3 | 0.00 | 0.03 | 0.03 | 37 | 1006.5 |
| 20260505004140 | 18 | 98 | 3.2 | 3.2 | 0.00 | 0.03 | 0.03 | 37 | 1006.8 |
| 20260505003638 | 18 | 145 | 1.6 | 1.6 | 0.00 | 0.03 | 0.03 | 38 | 1006.5 |
| 20260505003135 | 18 | 106 | 4.8 | 8.0 | 0.00 | 0.03 | 0.03 | 38 | 1006.8 |
| 20260505002631 | 18 | 128 | 4.8 | 4.8 | 0.00 | 0.03 | 0.03 | 38 | 1006.8 |
| 20260505002129 | 18 | 109 | 4.8 | 4.8 | 0.00 | 0.03 | 0.03 | 38 | 1006.8 |
| 20260505001626 | 18 | 135 | 3.2 | 3.2 | 0.00 | 0.03 | 0.03 | 38 | 1007.2 |
| 20260505001124 | 18 | 28 | 4.8 | 4.8 | 0.00 | 0.03 | 0.03 | 38 | 1006.8 |
| 20260505000620 | 18 | 87 | 4.8 | 8.0 | 0.00 | 0.03 | 0.03 | 38 | 1007.2 |
| 20260505000119 | 18 | 84 | 6.4 | 9.7 | 0.00 | 0.03 | 0.03 | 39 | 1007.2 |
| 20260504235615 | 18 | 72 | 4.8 | 8.0 | 0.00 | 0.03 | 0.03 | 39 | 1007.2 |
| 20260504235111 | 18 | 36 | 11.3 | 16.1 | 0.00 | 0.03 | 0.03 | 39 | 1007.6 |
| 20260504234608 | 18 | 122 | 14.5 | 20.9 | 0.00 | 0.03 | 0.03 | 39 | 1007.6 |
| 20260504234106 | 18 | 88 | 8.0 | 16.1 | 0.00 | 0.03 | 0.03 | 42 | 1007.6 |
| 20260504233601 | 18 | 102 | 4.8 | 8.0 | 0.00 | 0.03 | 0.03 | 42 | 1008.0 |
| 20260504233058 | 18 | 86 | 8.0 | 11.3 | 0.00 | 0.03 | 0.03 | 43 | 1007.6 |
| 20260504232555 | 18 | 49 | 8.0 | 9.7 | 0.00 | 0.03 | 0.03 | 42 | 1008.0 |
| 20260504232053 | 18 | 60 | 4.8 | 11.3 | 0.00 | 0.03 | 0.03 | 43 | 1008.0 |
| 20260504231549 | 18 | 62 | 4.8 | 4.8 | 0.00 | 0.03 | 0.03 | 44 | 1008.0 |
| 20260504231045 | 18 | 100 | 9.7 | 14.5 | 0.00 | 0.03 | 0.03 | 43 | 1007.6 |
| 20260504230541 | 17 | 98 | 8.0 | 11.3 | 0.00 | 0.03 | 0.03 | 46 | 1007.6 |
| 20260504230041 | 17 | 79 | 3.2 | 3.2 | 0.03 | 0.03 | 0.03 | 49 | 1008.0 |
| 20260504225537 | 16 | 181 | 1.6 | 3.2 | 0.03 | 0.03 | 0.03 | 53 | 1008.0 |
| 20260504225034 | 16 | 152 | 1.6 | 3.2 | 0.03 | 0.03 | 0.03 | 50 | 1008.0 |
| 20260504224531 | 16 | 133 | 3.2 | 8.0 | 0.03 | 0.03 | 0.03 | 53 | 1008.4 |
| 20260504224028 | 16 | 167 | 0.0 | 0.0 | 0.03 | 0.03 | 0.03 | 50 | 1008.0 |
| 20260504223524 | 16 | 223 | 4.8 | 8.0 | 0.03 | 0.03 | 0.03 | 50 | 1008.0 |
| 20260504223020 | 15 | 195 | 4.8 | 4.8 | 0.03 | 0.03 | 0.03 | 51 | 1008.4 |
| 20260504222517 | 15 | 208 | 4.8 | 4.8 | 0.03 | 0.03 | 0.03 | 53 | 1008.0 |
| 20260504222015 | 15 | 191 | 8.0 | 9.7 | 0.03 | 0.03 | 0.03 | 61 | 1008.0 |
| 20260504221512 | 16 | 219 | 1.6 | 3.2 | 0.00 | 0.00 | 0.00 | 54 | 1008.4 |
| 20260504221009 | 18 | 228 | 9.7 | 12.9 | 0.00 | 0.00 | 0.00 | 48 | 1008.0 |
| 20260504220505 | 19 | 230 | 8.0 | 11.3 | 0.00 | 0.00 | 0.00 | 40 | 1008.0 |
| 20260504220002 | 20 | 233 | 6.4 | 11.3 | 0.00 | 0.00 | 0.00 | 36 | 1007.6 |
| 20260504215459 | 20 | 213 | 8.0 | 11.3 | 0.00 | 0.00 | 0.00 | 34 | 1007.6 |
| 20260504214956 | 19 | 217 | 6.4 | 9.7 | 0.00 | 0.00 | 0.00 | 34 | 1007.6 |
| 20260504214452 | 19 | 115 | 3.2 | 4.8 | 0.00 | 0.00 | 0.00 | 39 | 1007.6 |
| 20260504213948 | 20 | 143 | 6.4 | 9.7 | 0.00 | 0.00 | 0.00 | 36 | 1007.2 |
| 20260504213444 | 20 | 102 | 3.2 | 3.2 | 0.00 | 0.00 | 0.00 | 35 | 1007.6 |
| 20260504212942 | 21 | 156 | 3.2 | 4.8 | 0.00 | 0.00 | 0.00 | 33 | 1007.6 |
| 20260504212438 | 21 | 254 | 1.6 | 3.2 | 0.00 | 0.00 | 0.00 | 32 | 1007.2 |
| 20260504211936 | 21 | 193 | 3.2 | 3.2 | 0.00 | 0.00 | 0.00 | 29 | 1007.2 |
| 20260504211432 | 21 | 202 | 1.6 | 1.6 | 0.00 | 0.00 | 0.00 | 30 | 1007.2 |
| 20260504210930 | 21 | 233 | 4.8 | 4.8 | 0.00 | 0.00 | 0.00 | 29 | 1007.6 |
| 20260504210426 | 22 | 241 | 3.2 | 3.2 | 0.00 | 0.00 | 0.00 | 30 | 1007.6 |
| 20260504205923 | 22 | 254 | 1.6 | 4.8 | 0.00 | 0.00 | 0.00 | 30 | 1007.6 |
| 20260504205421 | 22 | 122 | 3.2 | 3.2 | 0.00 | 0.00 | 0.00 | 29 | 1007.2 |
| 20260504204919 | 22 | 139 | 0.0 | 0.0 | 0.00 | 0.00 | 0.00 | 29 | 1007.6 |
| 20260504204417 | 22 | 269 | 4.8 | 4.8 | 0.00 | 0.00 | 0.00 | 30 | 1007.6 |
| 20260504203916 | 22 | 221 | 3.2 | 3.2 | 0.00 | 0.00 | 0.00 | 31 | 1007.6 |
| 20260504203413 | 22 | 158 | 0.0 | 0.0 | 0.00 | 0.00 | 0.00 | 29 | 1007.6 |
| 20260504202908 | 22 | 146 | 1.6 | 1.6 | 0.00 | 0.00 | 0.00 | 28 | 1007.6 |
| 20260504202406 | 22 | 96 | 1.6 | 3.2 | 0.00 | 0.00 | 0.00 | 29 | 1007.6 |
| 20260504201902 | 22 | 153 | 3.2 | 3.2 | 0.00 | 0.00 | 0.00 | 30 | 1007.6 |
| 20260504201400 | 22 | 5 | 4.8 | 4.8 | 0.00 | 0.00 | 0.00 | 28 | 1008.0 |
| 20260504200857 | 22 | 173 | 3.2 | 4.8 | 0.00 | 0.00 | 0.00 | 29 | 1007.6 |
| 20260504200354 | 22 | 160 | 1.6 | 1.6 | 0.00 | 0.00 | 0.00 | 30 | 1008.0 |
| 20260504195850 | 23 | 168 | 3.2 | 4.8 | 0.00 | 0.00 | 0.00 | 29 | 1008.0 |
| 20260504195346 | 23 | 253 | 3.2 | 4.8 | 0.00 | 0.00 | 0.00 | 28 | 1008.0 |
| 20260504194843 | 23 | 188 | 1.6 | 1.6 | 0.00 | 0.00 | 0.00 | 24 | 1008.0 |
| 20260504194339 | 23 | 173 | 0.0 | 1.6 | 0.00 | 0.00 | 0.00 | 26 | 1008.0 |
| 20260504193835 | 23 | 221 | 4.8 | 4.8 | 0.00 | 0.00 | 0.00 | 26 | 1007.6 |
| 20260504193332 | 23 | 159 | 4.8 | 4.8 | 0.00 | 0.00 | 0.00 | 26 | 1008.0 |
| 20260504192831 | 22 | 199 | 1.6 | 3.2 | 0.00 | 0.00 | 0.00 | 27 | 1008.0 |
| 20260504192328 | 22 | 234 | 1.6 | 3.2 | 0.00 | 0.00 | 0.00 | 28 | 1008.0 |
| 20260504191827 | 23 | 174 | 3.2 | 3.2 | 0.00 | 0.00 | 0.00 | 28 | 1008.0 |
| 20260504191324 | 23 | 156 | 4.8 | 4.8 | 0.00 | 0.00 | 0.00 | 26 | 1008.0 |
| 20260504190819 | 23 | 201 | 6.4 | 8.0 | 0.00 | 0.00 | 0.00 | 27 | 1008.4 |
| 20260504190316 | 23 | 161 | 1.6 | 3.2 | 0.00 | 0.00 | 0.00 | 28 | 1008.4 |
| 20260504185812 | 24 | 205 | 0.0 | 1.6 | 0.00 | 0.00 | 0.00 | 26 | 1008.4 |
| 20260504185309 | 24 | 182 | 3.2 | 3.2 | 0.00 | 0.00 | 0.00 | 25 | 1008.8 |
| 20260504184805 | 23 | 149 | 0.0 | 1.6 | 0.00 | 0.00 | 0.00 | 25 | 1008.8 |
| 20260504184301 | 23 | 258 | 6.4 | 8.0 | 0.00 | 0.00 | 0.00 | 27 | 1008.8 |
| 20260504183757 | 23 | 168 | 0.0 | 0.0 | 0.00 | 0.00 | 0.00 | 27 | 1008.8 |
| 20260504183254 | 23 | 233 | 4.8 | 8.0 | 0.00 | 0.00 | 0.00 | 27 | 1008.4 |
| 20260504182752 | 23 | 166 | 3.2 | 3.2 | 0.00 | 0.00 | 0.00 | 27 | 1008.8 |
| 20260504182249 | 23 | 136 | 4.8 | 8.0 | 0.00 | 0.00 | 0.00 | 26 | 1008.8 |
| 20260504181747 | 23 | 187 | 1.6 | 1.6 | 0.00 | 0.00 | 0.00 | 26 | 1008.8 |
| 20260504181244 | 23 | 179 | 3.2 | 3.2 | 0.00 | 0.00 | 0.00 | 28 | 1009.1 |
| 20260504180743 | 23 | 212 | 6.4 | 8.0 | 0.00 | 0.00 | 0.00 | 28 | 1009.1 |
| 20260504180241 | 22 | 292 | 4.8 | 4.8 | 0.00 | 0.00 | 0.00 | 28 | 1008.8 |
| 20260504175739 | 23 | 271 | 4.8 | 4.8 | 0.00 | 0.00 | 0.00 | 29 | 1009.1 |
| 20260504175235 | 23 | 218 | 6.4 | 8.0 | 0.00 | 0.00 | 0.00 | 27 | 1009.1 |
| 20260504174733 | 23 | 191 | 3.2 | 4.8 | 0.00 | 0.00 | 0.00 | 29 | 1008.8 |
| 20260504174231 | 22 | 171 | 0.0 | 1.6 | 0.00 | 0.00 | 0.00 | 29 | 1009.1 |
| 20260504173727 | 22 | 175 | 8.0 | 9.7 | 0.00 | 0.00 | 0.00 | 30 | 1009.1 |
| 20260504173224 | 22 | 165 | 3.2 | 4.8 | 0.00 | 0.00 | 0.00 | 28 | 1009.1 |
| 20260504172721 | 22 | 163 | 1.6 | 3.2 | 0.00 | 0.00 | 0.00 | 29 | 1009.6 |
| 20260504172217 | 22 | 211 | 6.4 | 9.7 | 0.00 | 0.00 | 0.00 | 31 | 1009.6 |
| 20260504171714 | 22 | 202 | 3.2 | 3.2 | 0.00 | 0.00 | 0.00 | 32 | 1009.6 |
| 20260504171211 | 23 | 293 | 6.4 | 9.7 | 0.00 | 0.00 | 0.00 | 30 | 1009.6 |
| 20260504170707 | 22 | 166 | 0.0 | 0.0 | 0.00 | 0.00 | 0.00 | 31 | 1009.1 |
| 20260504170205 | 22 | 112 | 3.2 | 3.2 | 0.00 | 0.00 | 0.00 | 31 | 1009.6 |
| 20260504160124 | 21 | 161 | 0.0 | 0.0 | 0.00 | 0.00 | 0.00 | 30 | 1009.6 |
| 20260504151050 | 20 | 158 | 0.0 | 0.0 | 0.00 | 0.00 | 0.00 | 31 | 1009.9 |
| 20260504150548 | 18 | 151 | 0.0 | 1.6 | 0.00 | 0.00 | 0.00 | 32 | 1009.9 |
| 20260504141014 | 15 | 102 | 1.6 | 3.2 | 0.00 | 0.00 | 0.00 | 36 | 1010.2 |
| 20260504140510 | 15 | 90 | 1.6 | 1.6 | 0.00 | 0.00 | 0.00 | 36 | 1010.2 |
| 20260504130435 | 13 | 154 | 3.2 | 3.2 | 0.00 | 0.00 | 0.00 | 38 | 1010.2 |
| 20260504110316 | 13 | 147 | 1.6 | 1.6 | 0.00 | 0.00 | 0.00 | 33 | 1010.2 |